Regional Weather Roundup
Issued by NWS

Home | Current Version | Previous Version | Text Only | Print | Product List | Glossary Off
Versions: 1 2 3 4 5 6 7 8 9 10 11 12 13 14 15 16 17 18 19 20 21 22 23 24 25 26 27 28 29 30 31 32 33 34 35 36 37 38 39 40 41 42 43 44 45 46 47 48 49 50

000
ASUS43 KLSX 171707
RWRMO

WEATHER SUMMARY FOR MISSOURI
NATIONAL WEATHER SERVICE SPRINGFIELD MO
1100 AM CST TUE JAN 17 2017

NOTE: "FAIR" INDICATES FEW OR NO CLOUDS BELOW 12,000 FEET WITH NO
       SIGNIFICANT WEATHER AND/OR OBSTRUCTIONS TO VISIBILITY.
       CURRENT SKY AND/OR WEATHER CONDITIONS ARE NOT AVAILABLE FOR
       CHILLICOTHE AND FARMINGTON.

MOZ001>031-035>038-043-044-053-054-171800-
...NORTHERN AND WESTERN MISSOURI...

CITY           SKY/WX    TMP DP  RH WIND       PRES   REMARKS
KANSAS CTY INT CLOUDY    35  32  88 W12       30.09S FOG     WCI  27
KANSAS C DTWN  CLOUDY    37  34  89 W8        30.11R
LEE`S SUMMIT   CLOUDY    36  34  92 W9        30.11R WCI  29
ST JOSEPH      CLOUDY    34  34 100 NW10      30.11S WCI  26
CHILLICOTHE      N/A     37  35  92 VRB5      30.08S
KIRKSVILLE     CLOUDY    36  35  96 W8        30.03R WCI  30

$$
MOZ066>068-077>081-088>096-101>105-171800-
...SOUTHWEST MISSOURI...

CITY           SKY/WX    TMP DP  RH WIND       PRES   REMARKS
SPRINGFIELD    CLOUDY    38  36  92 W13       30.11R WCI  30
JOPLIN         CLOUDY    38  35  89 W8        30.17R
BRANSON        CLOUDY    39  36  87 W6        30.13R

$$
MOZ032>034-039>042-045>050-055>058-069>072-171800-
...CENTRAL MISSOURI...

CITY           SKY/WX    TMP DP  RH WIND       PRES   REMARKS
COLUMBIA       CLOUDY    38  36  92 W12       30.07R
JEFFERSON CITY CLOUDY    40  36  86 W14       30.09R
ROLLA          CLOUDY    39  38  96 W9        30.06R
SEDALIA        CLOUDY    38  36  92 W9        30.11R FOG
WARRENSBURG    CLOUDY    36  34  93 W7        30.11R WCI  30
OSAGE BEACH    CLOUDY    40  35  83 W9        30.11R

$$
MOZ051-052-059>065-171800-
...EAST CENTRAL MISSOURI...

CITY           SKY/WX    TMP DP  RH WIND       PRES   REMARKS
ST LOUIS INTL  CLOUDY    47  38  71 W14       30.03R
SPIRIT OF STL  CLOUDY    44  39  82 W14G22    30.04R
ST CHARLES     CLOUDY    44  40  85 W16       30.03R

$$
MOZ072>076-082>087-097>100-106>115-171800-
...SOUTH CENTRAL AND SOUTHEAST MISSOURI...

CITY           SKY/WX    TMP DP  RH WIND       PRES   REMARKS
CAPE GIRARDEAU CLOUDY    46  40  79 SW10      30.07R
FARMINGTON     CLOUDY    42  38  85 W10       30.07R
POPLAR BLUFF   CLOUDY    45  39  79 W9        30.09S
WEST PLAINS    CLOUDY    40  37  89 W8        30.10F

$$


USA.gov is the U.S. government's official web portal to all federal, state and local government web resources and services.